User: anonymous   Login
Location: Olda
(45.8833°N, 9.5500°E)
Time: 23:28:08
(UTC+00:00)
Language:

Okean 1-7 - Orbit

View from above orbital plane
View from above orbital plane
View from above satellite
View from above satellite

Ground track
Ground track

The orbit data is extracted from the following two-line orbital elements,

1 23317U 94066A   21129.77715587  .00000164  00000-0  15078-4 0  9999
2 23317  82.5399 219.9975 0020255  26.0239 334.1992 14.87912943437443
Epoch (UTC): 09 May 2021 18:39:06
Eccentricity: 0.0020255
inclination: 82.5399°
perigee height: 590 km
apogee height: 618 km
right ascension of ascending node: 219.9975°
argument of perigee: 26.0239°
revolutions per day: 14.87912943
mean anomaly at epoch: 334.1992°
orbit number at epoch: 43744

The dashed part of the orbit path shows where the satellite is in the earth's shadow,  

DLR